Regional Weather Roundup
Issued by NWS

Home | Current Version | Previous Version | Text Only | Print | Product List | Glossary Off
Versions: 1 2 3 4 5 6 7 8 9 10 11 12 13 14 15 16 17 18 19 20 21 22 23 24 25 26 27 28 29 30 31 32 33 34 35 36 37 38 39 40 41 42 43 44 45 46 47 48 49 50

244
ASUS43 KLMK 060510
RWRKY
KENTUCKY REGIONAL WEATHER ROUNDUP
NATIONAL WEATHER SERVICE LOUISVILLE KY
1200 AM EST TUE DEC 06 2016

NOTE "FAIR" INDICATES FEW OR NO CLOUDS BELOW 12,000 FEET
WITH NO SIGNIFICANT WEATHER AND/OR OBSTRUCTIONS TO VISIBILITY.

KYZ001>023-026-027-061>063-070>075-060600-
WESTERN AND SOUTH CENTRAL KENTUCKY

CITY           SKY/WX    TMP DP  RH WIND       PRES   REMARKS
PADUCAH        CLOUDY    43  37  79 NE6       29.77F
HENDERSON      CLOUDY    43  34  70 E12       29.79F
OWENSBORO      LGT RAIN  43  37  79 E8        29.79F
HOPKINSVILLE   CLOUDY    45  43  93 E7        29.75F FOG
BOWLING GREEN  CLOUDY    46  41  82 E8        29.78F
GLASGOW        CLOUDY    46  41  84 NE3       29.79S
$$

KYZ024-025-028>034-038-045-046-053-060600-
NORTH CENTRAL KENTUCKY

CITY           SKY/WX    TMP DP  RH WIND       PRES   REMARKS
LOUISVILLE/SDF CLOUDY    45  35  68 E9        29.82F
LOUISVILLE/LOU CLOUDY    44  35  70 NE7       29.84F
FORT KNOX      CLOUDY    43  36  76 NE10      29.79F
$$

KYZ035>037-039>044-047>052-055>060-089>105-060600-
NORTHEAST KENTUCKY

CITY           SKY/WX    TMP DP  RH WIND       PRES   REMARKS
LEXINGTON      CLOUDY    44  35  70 E13       29.84F
COVINGTON      CLOUDY    40  33  76 NE12      29.89F WCI  33
FRANKFORT      CLOUDY    43  35  73 E13G21    29.83F
$$

KYZ054-064>069-076>088-106>120-060600-
SOUTHEAST KENTUCKY

CITY           SKY/WX    TMP DP  RH WIND       PRES   REMARKS
JACKSON        CLOUDY    44  35  70 VRB6      29.86F
LONDON         CLOUDY    47  38  71 E8        29.81F
SOMERSET       CLOUDY    45  39  81 E5        29.83F
MIDDLESBORO    CLOUDY    49  46  87 W6        29.83F
MONTICELLO     CLOUDY    48  43  82 N12       29.82F
$$





USA.gov is the U.S. government's official web portal to all federal, state and local government web resources and services.